| time (UTC) | temp C | wind direction | speed KPH | gust KPH | rain 1hr cm | rain 24hr cm | rain mn cm | humidity % | barometer mb |
| 20260506231530 | 30 | 115 | 12.9 | 30.6 | 0.00 | 0.00 | 0.00 | 83 | 1006.3 |
| 20260506230027 | 31 | 111 | 16.1 | 32.2 | 0.00 | 0.00 | 0.00 | 81 | 1006.0 |
| 20260506224530 | 32 | 92 | 16.1 | 27.4 | 0.00 | 0.00 | 0.00 | 77 | 1005.9 |
| 20260506223028 | 32 | 99 | 16.1 | 27.4 | 0.00 | 0.00 | 0.00 | 77 | 1005.8 |
| 20260506221530 | 32 | 139 | 11.3 | 25.7 | 0.00 | 0.00 | 0.00 | 74 | 1005.9 |
| 20260506220037 | 33 | 77 | 14.5 | 27.4 | 0.00 | 0.00 | 0.00 | 72 | 1005.9 |
| 20260506214528 | 33 | 156 | 11.3 | 22.5 | 0.00 | 0.00 | 0.00 | 69 | 1005.8 |
| 20260506213032 | 34 | 188 | 8.0 | 19.3 | 0.00 | 0.00 | 0.00 | 66 | 1005.9 |
| 20260506211532 | 33 | 176 | 9.7 | 22.5 | 0.00 | 0.00 | 0.00 | 68 | 1005.8 |
| 20260506210032 | 33 | 177 | 12.9 | 29.0 | 0.00 | 0.00 | 0.00 | 69 | 1005.9 |
| 20260506204530 | 33 | 159 | 11.3 | 24.1 | 0.00 | 0.00 | 0.00 | 69 | 1006.1 |
| 20260506203029 | 33 | 166 | 11.3 | 27.4 | 0.00 | 0.00 | 0.00 | 70 | 1006.5 |
| 20260506201530 | 33 | 184 | 8.0 | 20.9 | 0.00 | 0.00 | 0.00 | 71 | 1006.8 |
| 20260506200030 | 32 | 159 | 12.9 | 24.1 | 0.00 | 0.00 | 0.00 | 72 | 1006.9 |
| 20260506194528 | 32 | 199 | 12.9 | 27.4 | 0.00 | 0.00 | 0.00 | 73 | 1007.2 |
| 20260506193028 | 32 | 120 | 11.3 | 30.6 | 0.00 | 0.00 | 0.00 | 73 | 1007.2 |
| 20260506191528 | 32 | 148 | 14.5 | 30.6 | 0.00 | 0.00 | 0.00 | 72 | 1007.3 |
| 20260506190030 | 32 | 157 | 11.3 | 27.4 | 0.00 | 0.00 | 0.00 | 74 | 1007.4 |
| 20260506184529 | 32 | 186 | 16.1 | 27.4 | 0.00 | 0.00 | 0.00 | 75 | 1007.5 |
| 20260506183030 | 32 | 202 | 14.5 | 40.2 | 0.00 | 0.00 | 0.00 | 76 | 1007.6 |
| 20260506181528 | 31 | 140 | 11.3 | 32.2 | 0.00 | 0.00 | 0.00 | 77 | 1007.9 |
| 20260506180030 | 31 | 177 | 16.1 | 30.6 | 0.00 | 0.00 | 0.00 | 79 | 1008.0 |
| 20260506174529 | 30 | 162 | 14.5 | 33.8 | 0.00 | 0.00 | 0.00 | 79 | 1008.2 |
| 20260506173028 | 30 | 149 | 12.9 | 30.6 | 0.00 | 0.00 | 0.00 | 81 | 1008.3 |
| 20260506171528 | 30 | 143 | 9.7 | 25.7 | 0.00 | 0.00 | 0.00 | 81 | 1008.5 |
| 20260506170028 | 30 | 155 | 12.9 | 27.4 | 0.00 | 0.00 | 0.00 | 81 | 1008.4 |
| 20260506164530 | 30 | 175 | 14.5 | 29.0 | 0.00 | 0.00 | 0.00 | 81 | 1008.5 |
| 20260506163032 | 29 | 117 | 12.9 | 29.0 | 0.00 | 0.00 | 0.00 | 82 | 1008.5 |
| 20260506161526 | 29 | 157 | 12.9 | 29.0 | 0.00 | 0.00 | 0.00 | 82 | 1008.4 |
| 20260506160028 | 28 | 166 | 8.0 | 19.3 | 0.00 | 0.00 | 0.00 | 85 | 1008.2 |
| 20260506154532 | 28 | 157 | 11.3 | 24.1 | 0.00 | 0.00 | 0.00 | 86 | 1008.2 |
| 20260506153029 | 28 | 177 | 9.7 | 20.9 | 0.00 | 0.00 | 0.00 | 87 | 1008.2 |
| 20260506151529 | 27 | 148 | 6.4 | 19.3 | 0.00 | 0.00 | 0.00 | 89 | 1008.2 |
| 20260506150027 | 27 | 144 | 9.7 | 16.1 | 0.00 | 0.00 | 0.00 | 89 | 1008.5 |
| 20260506144534 | 27 | 146 | 6.4 | 14.5 | 0.00 | 0.00 | 0.00 | 89 | 1008.7 |
| 20260506143031 | 27 | 162 | 9.7 | 17.7 | 0.00 | 0.00 | 0.00 | 90 | 1008.7 |
| 20260506141535 | 27 | 182 | 4.8 | 14.5 | 0.00 | 0.00 | 0.00 | 91 | 1008.8 |
| 20260506140030 | 26 | 163 | 6.4 | 14.5 | 0.00 | 0.00 | 0.00 | 91 | 1008.8 |
| 20260506134527 | 26 | 169 | 6.4 | 12.9 | 0.00 | 0.00 | 0.00 | 92 | 1008.7 |
| 20260506133028 | 26 | 198 | 8.0 | 17.7 | 0.00 | 0.00 | 0.00 | 92 | 1008.7 |
| 20260506131528 | 26 | 190 | 8.0 | 16.1 | 0.00 | 0.00 | 0.00 | 92 | 1008.4 |
| 20260506130030 | 26 | 165 | 6.4 | 17.7 | 0.00 | 0.00 | 0.00 | 93 | 1008.2 |
| 20260506124529 | 26 | 150 | 4.8 | 20.9 | 0.00 | 0.00 | 0.00 | 93 | 1007.7 |
| 20260506123029 | 26 | 144 | 6.4 | 16.1 | 0.00 | 0.00 | 0.00 | 94 | 1007.6 |
| 20260506121529 | 25 | 149 | 8.0 | 17.7 | 0.00 | 0.00 | 0.00 | 94 | 1007.4 |
| 20260506120031 | 25 | 131 | 9.7 | 24.1 | 0.00 | 0.00 | 0.00 | 94 | 1006.9 |
| 20260506114527 | 25 | 165 | 12.9 | 24.1 | 0.00 | 0.00 | 0.00 | 95 | 1006.7 |
| 20260506113030 | 25 | 127 | 9.7 | 25.7 | 0.00 | 0.00 | 0.00 | 95 | 1006.5 |
| 20260506111527 | 25 | 162 | 11.3 | 24.1 | 0.00 | 0.00 | 0.00 | 95 | 1006.2 |
| 20260506110027 | 25 | 126 | 12.9 | 24.1 | 0.00 | 0.00 | 0.00 | 95 | 1006.0 |
| 20260506104529 | 25 | 129 | 11.3 | 22.5 | 0.00 | 0.00 | 0.00 | 94 | 1005.9 |
| 20260506103030 | 25 | 130 | 12.9 | 25.7 | 0.00 | 0.00 | 0.00 | 94 | 1006.0 |
| 20260506101528 | 25 | 139 | 9.7 | 25.7 | 0.00 | 0.00 | 0.00 | 94 | 1006.0 |
| 20260506100027 | 25 | 134 | 12.9 | 24.1 | 0.00 | 0.00 | 0.00 | 94 | 1006.1 |
| 20260506094529 | 25 | 144 | 12.9 | 27.4 | 0.00 | 0.00 | 0.00 | 95 | 1005.8 |
| 20260506093033 | 25 | 167 | 11.3 | 24.1 | 0.00 | 0.00 | 0.00 | 95 | 1006.0 |
| 20260506091528 | 25 | 160 | 9.7 | 24.1 | 0.00 | 0.00 | 0.00 | 95 | 1006.2 |
| 20260506090028 | 25 | 151 | 9.7 | 19.3 | 0.00 | 0.00 | 0.00 | 95 | 1006.2 |
| 20260506084534 | 25 | 140 | 9.7 | 19.3 | 0.00 | 0.00 | 0.00 | 95 | 1006.3 |
| 20260506083030 | 25 | 119 | 9.7 | 20.9 | 0.00 | 0.00 | 0.00 | 95 | 1006.3 |
| 20260506081528 | 25 | 137 | 11.3 | 22.5 | 0.00 | 0.00 | 0.00 | 95 | 1006.5 |
| 20260506073028 | 25 | 189 | 12.9 | 22.5 | 0.00 | 0.00 | 0.00 | 94 | 1006.9 |
| 20260506071529 | 25 | 136 | 11.3 | 22.5 | 0.00 | 0.00 | 0.00 | 94 | 1006.9 |
| 20260506061529 | 25 | 130 | 12.9 | 22.5 | 0.00 | 0.00 | 0.00 | 93 | 1007.4 |
| 20260506044538 | 25 | 126 | 11.3 | 22.5 | 0.00 | 0.00 | 0.00 | 91 | 1008.6 |
| 20260506043027 | 26 | 144 | 16.1 | 27.4 | 0.00 | 0.00 | 0.00 | 91 | 1008.4 |
| 20260506041541 | 26 | 138 | 16.1 | 27.4 | 0.00 | 0.00 | 0.00 | 91 | 1008.5 |
| 20260506040033 | 26 | 130 | 14.5 | 27.4 | 0.00 | 0.00 | 0.00 | 90 | 1008.5 |
| 20260506034532 | 26 | 136 | 12.9 | 29.0 | 0.00 | 0.00 | 0.00 | 90 | 1008.3 |
| 20260506033028 | 26 | 112 | 14.5 | 24.1 | 0.00 | 0.00 | 0.00 | 90 | 1008.2 |
| 20260506031529 | 26 | 161 | 11.3 | 25.7 | 0.00 | 0.00 | 0.00 | 91 | 1008.0 |
| 20260506030028 | 26 | 163 | 11.3 | 25.7 | 0.00 | 0.00 | 0.00 | 91 | 1007.7 |
| 20260506024533 | 26 | 136 | 11.3 | 25.7 | 0.00 | 0.00 | 0.00 | 90 | 1007.4 |
| 20260506023030 | 26 | 132 | 12.9 | 29.0 | 0.00 | 0.00 | 0.00 | 90 | 1007.4 |
| 20260506021528 | 26 | 144 | 14.5 | 29.0 | 0.00 | 0.00 | 0.00 | 90 | 1007.1 |
| 20260506020030 | 26 | 136 | 14.5 | 30.6 | 0.00 | 0.00 | 0.00 | 90 | 1006.7 |
| 20260506014528 | 26 | 135 | 16.1 | 29.0 | 0.00 | 0.00 | 0.00 | 89 | 1006.5 |
| 20260506013032 | 26 | 135 | 12.9 | 35.4 | 0.00 | 0.00 | 0.00 | 88 | 1006.2 |
| 20260506011539 | 26 | 184 | 17.7 | 32.2 | 0.00 | 0.00 | 0.00 | 88 | 1006.0 |
| 20260506010030 | 26 | 134 | 16.1 | 35.4 | 0.00 | 0.00 | 0.00 | 87 | 1005.7 |
| 20260506004540 | 26 | 117 | 20.9 | 35.4 | 0.00 | 0.00 | 0.00 | 87 | 1005.7 |
| 20260506003031 | 27 | 142 | 22.5 | 37.0 | 0.00 | 0.00 | 0.00 | 86 | 1005.7 |
| 20260506001531 | 27 | 97 | 19.3 | 32.2 | 0.00 | 0.00 | 0.00 | 86 | 1005.6 |
| 20260506000028 | 27 | 119 | 17.7 | 40.2 | 0.00 | 0.00 | 0.00 | 86 | 1005.7 |
| 20260505234530 | 27 | 167 | 20.9 | 37.0 | 0.00 | 0.00 | 0.00 | 85 | 1005.6 |
| 20260505233033 | 27 | 150 | 16.1 | 40.2 | 0.00 | 0.00 | 0.00 | 84 | 1005.7 |